Tracking 28790 objects as of 19-Apr-2024
HD Live streaming from Space Station
objects crossing your sky now

FENGYUN 1C DEB

Track FENGYUN 1C DEB now!
10-day predictions


NORAD ID: 30736
Int'l Code: 1999-025ASW
Perigee: 834.0 km
Apogee: 1,266.4 km
Inclination: 98.8 °
Period: 106.0 minutes
Semi major axis: 7421 km
RCS: 0.0154 m2 (small)
Launch date: May 10, 1999
Source: People's Republic of China (PRC)
Launch site: Taiyaun Space Center, China (TSC)

Note: This is SATELLITE DEBRIS
Your satellite tracking list
Your tracking list is empty




NASA's NSSDC Master Catalog

Two Line Element Set (TLE):
1 30736U 99025ASW 24101.74800714  .00002290  00000-0  24445-2 0  9997
2 30736  98.8123 194.1723 0291378 203.2390 311.1119 13.57977982845471
Source of the keplerian elements: AFSPC